Theta_e
297 297 297 298 298 298 299 300 303 303 304 305 303 304 303 302 304 305 306 306 307 308 308 306 306 308 315 318 318 319 319 313 313 314 313 313 314 315 315 317 318 318 315 318
296 296 297 297 297 298 299 301 302 303 304 306 305 304 303 302 305 306 306 307 306 307 305 305 307 311 314 313 319 319 319 321 320 318 315 316 317 315 316 314 314 316 317 317
296 296 297 297 296 297 299 299 301 303 304 304 305 305 304 303 302 303 304 305 305 306 306 306 307 308 309 314 318 318 317 321 318 323 322 319 320 317 316 319 315 315 316 316
295 295 296 297 296 297 299 298 300 304 305 304 305 305 304 304 304 303 303 304 305 305 306 305 306 307 307 308 316 317 316 316 319 320 320 317 316 315 315 315 317 317 317 315
294 295 296 296 296 297 299 298 301 302 304 305 305 305 305 305 304 304 305 305 306 305 305 305 305 305 305 306 307 316 315 313 317 316 318 317 315 314 314 316 317 316 316 315
295 295 296 296 296 297 299 298 299 303 302 305 306 306 305 305 304 304 303 304 304 304 304 303 304 303 303 304 306 309 314 315 315 315 314 313 313 312 314 314 312 315 316 315
295 296 296 296 296 298 299 298 299 301 303 303 305 305 305 305 304 304 304 303 304 304 302 303 304 304 304 304 305 308 313 312 310 312 312 314 308 311 312 311 313 314 313 313
295 296 296 296 297 298 299 299 300 301 302 303 305 306 306 304 304 304 304 304 303 302 304 307 307 305 311 310 310 310 311 308 308 309 313 311 309 308 309 314 309 313 311 314
296 296 296 298 298 298 300 299 299 301 304 303 303 306 306 306 305 304 303 303 302 303 303 306 309 306 308 312 313 312 310 308 311 312 311 308 306 311 315 315 312 315 317 319
297 298 298 298 298 299 300 300 299 301 300 302 303 304 306 305 304 304 303 304 305 304 304 308 308 307 307 310 312 315 313 313 316 313 315 310 309 311 315 315 310 314 314 314
298 297 298 299 298 299 300 300 300 300 299 302 303 303 305 305 304 305 303 305 305 306 307 306 306 304 306 307 309 311 311 310 312 313 315 312 309 317 314 312 313 313 312 315
297 297 297 297 297 297 297 299 300 300 300 301 301 303 303 304 303 304 303 303 305 304 304 304 302 302 298 306 308 308 310 308 309 310 310 308 313 315 315 313 312 314 314 313
298 298 299 298 298 299 298 299 299 299 299 300 301 301 301 303 304 304 305 303 305 306 302 302 303 304 300 303 304 308 308 307 309 309 308 309 308 309 310 313 314 315 313 313
301 301 301 300 299 299 300 300 300 299 300 301 299 299 300 301 303 304 304 303 306 306 306 305 302 302 302 301 305 304 305 307 309 309 308 309 309 311 311 311 312 314 313 313
301 301 301 301 300 300 301 301 300 299 299 300 297 300 300 301 303 304 305 305 305 306 307 306 304 302 305 303 304 303 307 308 308 307 307 309 309 309 304 308 308 308 313 313
300 301 301 301 301 300 302 297 300 299 299 301 299 297 302 300 300 302 305 306 306 306 307 306 304 304 307 303 302 307 305 304 304 308 303 303 304 305 300 301 301 301 300 297
301 300 300 301 301 301 300 300 300 300 300 301 299 298 301 302 303 303 305 305 306 307 306 307 305 306 307 300 304 302 299 298 299 302 302 306 304 302 297 296 296 295 293 291
301 301 301 301 301 301 301 301 300 300 300 300 297 304 305 303 302 306 303 306 307 307 303 306 307 307 304 306 295 295 294 295 299 298 298 301 299 295 293 292 292 291 289 287
301 302 301 300 299 301 301 300 300 300 300 300 301 303 305 302 304 304 304 304 305 305 305 306 306 298 293 293 292 291 291 292 295 295 297 297 297 293 291 290 289 288 287 286
299 299 298 297 301 300 300 299 299 299 298 299 297 299 304 303 301 302 303 300 305 307 304 299 297 293 291 290 289 289 289 290 291 293 295 292 293 291 288 287 287 286 285 285
299 298 300 300 300 300 298 299 300 300 301 300 300 299 304 299 303 303 297 302 300 307 306 300 296 292 290 288 287 286 286 287 287 288 288 287 287 287 286 285 284 283 282 282
299 299 298 296 295 296 300 300 299 301 303 300 301 302 301 301 303 303 303 302 301 304 296 294 290 290 287 286 285 285 285 285 284 284 284 284 284 283 283 282 282 280 279 279
298 294 292 293 287 288 289 301 299 299 297 296 299 301 299 300 301 303 302 305 301 295 292 290 289 287 286 285 284 284 283 283 283 282 282 281 281 280 280 279 279 278 278 277
290 289 285 283 283 287 290 289 290 293 293 295 296 300 300 298 300 300 299 293 291 288 285 286 286 285 284 284 283 282 281 281 281 280 280 280 279 278 278 278 278 278 277 276
288 285 284 285 286 287 287 287 289 290 290 294 298 296 294 293 294 291 292 288 284 287 284 283 284 283 283 283 282 281 281 280 280 279 279 279 278 278 277 277 276 276 276 276
285 283 283 282 284 284 284 285 286 288 288 293 295 295 290 290 291 286 285 286 283 281 280 282 281 281 281 280 280 280 280 279 279 279 278 278 277 277 276 275 275 274 274 274
283 281 280 279 279 281 283 285 286 286 291 292 291 290 290 288 286 284 284 279 279 281 281 281 281 280 279 279 279 278 278 278 278 277 278 277 277 276 276 275 274 274 273 273
Wind_Speed
23 23 21 19 18 16 14 4 4 8 28 6 3 9 5 4 4 2 8 4 6 3 5 4 3 4 5 11 5 4 3 3 4 10 7 5 1 2 6 4 5 4 2 6
24 24 23 20 20 18 7 3 2 10 20 8 9 3 9 5 3 3 3 3 2 1 1 3 3 4 5 12 8 3 1 2 2 1 1 6 5 3 6 4 3 7 4 4
26 26 24 22 22 21 18 2 3 5 7 6 14 8 9 8 5 7 2 3 3 3 4 2 4 6 3 8 4 4 2 3 4 2 2 3 3 6 5 1 3 4 9 5
28 29 26 25 26 24 18 4 5 3 6 10 8 14 9 14 8 9 2 3 5 1 2 5 3 4 6 3 4 4 1 4 3 3 5 4 8 9 6 5 6 7 8 12
32 31 29 29 29 26 21 4 4 4 4 7 14 15 13 17 17 10 7 6 2 6 8 8 7 6 1 4 6 3 4 1 3 4 9 10 11 7 8 6 5 8 11 14
34 32 33 32 32 29 12 12 8 3 8 5 13 14 15 17 12 11 17 9 8 8 13 7 11 7 8 6 4 7 3 3 2 2 2 3 7 7 12 7 5 5 5 10
35 35 36 37 37 38 29 7 7 4 7 12 11 15 18 17 19 14 12 16 6 4 2 3 2 5 9 8 11 8 2 3 2 1 0 3 6 3 5 8 9 8 7 6
41 40 40 40 40 40 38 19 10 6 9 9 13 13 11 18 18 19 14 8 16 2 4 4 4 2 2 5 13 9 6 4 2 3 3 7 10 6 6 8 17 5 8 7
46 44 42 40 41 41 40 33 25 5 3 13 14 7 12 10 12 14 15 14 1 3 2 3 3 3 3 3 3 6 6 3 3 3 2 5 4 3 4 3 9 3 5 6
43 40 39 38 39 39 40 17 38 10 3 6 12 10 7 4 7 4 4 8 6 5 2 3 4 3 3 3 5 5 5 1 8 3 3 7 6 6 1 2 6 7 4 5
36 36 34 31 28 30 33 23 35 23 2 4 6 11 8 6 7 4 4 5 3 2 6 3 4 3 4 3 4 6 6 6 4 4 4 8 6 2 6 7 4 4 7 5
29 30 31 32 32 32 31 8 22 25 2 0 14 16 25 14 19 12 10 7 6 7 3 3 2 2 1 6 3 1 3 6 6 8 7 4 5 5 5 3 7 5 5 8
34 34 34 33 33 36 39 22 26 20 3 1 3 6 20 19 17 12 5 3 5 4 4 4 4 4 4 4 5 4 3 5 4 2 5 12 9 7 4 6 12 11 8 7
29 30 33 36 37 35 37 27 26 23 2 1 4 10 5 25 30 27 17 5 1 2 2 2 3 3 4 4 4 5 5 5 4 10 7 8 11 5 12 13 10 12 8 5
26 30 32 33 36 35 34 24 31 30 6 2 2 3 15 17 21 25 21 12 5 2 1 1 3 1 2 2 2 2 0 2 3 4 4 2 7 8 14 10 14 17 10 7
23 28 32 34 34 34 25 3 24 32 22 2 1 4 3 16 23 14 10 10 3 4 3 3 3 2 2 2 2 5 5 3 5 5 10 9 13 12 12 11 13 14 13 10
24 32 32 33 33 36 6 3 14 33 24 2 1 3 3 8 6 4 5 6 3 4 3 4 2 1 4 2 2 6 6 8 9 8 11 4 10 6 11 13 13 12 12 14
21 32 34 35 37 20 5 3 35 36 8 2 2 3 2 5 4 4 4 4 4 3 2 3 3 2 1 2 5 7 9 11 5 9 10 9 5 6 10 10 10 11 11 12
34 38 40 26 7 3 8 32 30 13 4 3 2 2 3 2 2 3 2 2 2 0 2 3 2 2 2 4 6 7 9 8 10 13 11 6 5 7 9 10 14 11 11 11
36 25 4 3 8 45 27 6 2 2 1 0 2 1 3 2 1 3 4 2 3 3 3 4 3 2 6 6 6 7 8 8 9 7 5 9 8 8 10 13 9 10 10 11
6 2 4 30 24 6 2 3 3 3 3 2 2 4 2 2 2 3 1 3 2 3 2 3 3 2 2 4 6 7 7 6 8 7 7 8 8 8 10 12 11 12 15 14
12 17 12 7 5 4 3 2 2 1 2 1 1 2 1 2 2 3 0 3 2 3 2 3 2 2 5 5 7 8 8 9 10 12 10 10 11 11 12 11 10 16 19 20
10 7 5 3 4 8 3 2 2 2 3 3 2 2 1 2 3 3 2 3 3 3 3 2 2 4 6 6 7 8 9 12 12 12 16 19 21 21 22 17 19 20 22 21
4 4 6 4 4 3 3 2 1 2 2 3 2 2 2 2 3 3 4 2 3 4 3 2 2 5 6 6 6 8 9 10 12 12 16 18 20 21 24 23 21 23 22 24
5 5 5 4 2 2 3 3 1 3 4 2 1 3 3 4 4 3 3 4 4 2 2 2 3 6 6 7 6 7 8 9 10 14 14 17 19 21 22 23 22 23 24 24
4 7 4 3 2 5 4 3 2 3 4 1 2 3 4 5 3 5 3 3 2 2 2 3 6 8 8 8 8 8 13 15 16 18 19 20 20 20 21 25 25 25 25 24
5 3 3 1 1 2 3 3 4 3 2 3 2 5 4 3 3 3 3 2 1 5 5 5 7 8 8 8 11 13 15 16 17 19 18 18 16 18 20 19 19 21 22 23
Wind_Direction
265 267 265 265 266 264 275 241 242 198 168 193 200 216 188 242 288 4 243 235 238 279 354 344 310 348 10 341 339 74 8 115 183 245 271 282 345 208 185 199 255 238 203 237
263 264 261 259 258 252 239 222 248 204 191 215 207 167 208 240 270 243 305 307 352 317 246 321 297 341 339 2 16 24 301 65 39 101 24 13 42 20 349 301 139 223 241 277
261 260 258 255 251 251 228 189 241 188 218 223 215 181 187 203 219 263 328 313 325 11 18 327 306 337 315 2 343 17 37 86 125 106 233 206 292 316 332 256 288 278 258 269
259 258 256 252 249 249 224 192 217 230 205 224 199 191 200 199 213 211 192 243 205 348 340 349 268 314 324 315 345 329 44 139 143 179 240 258 274 274 283 290 222 246 289 288
260 255 251 251 248 246 228 197 186 198 234 203 198 199 207 207 210 220 207 232 11 216 212 202 253 291 333 301 327 295 354 198 135 212 223 246 271 263 281 273 252 262 270 265
255 253 251 249 246 237 226 209 204 245 211 223 196 205 197 208 203 213 221 213 231 246 255 246 244 232 260 241 290 325 305 145 126 250 98 360 290 215 220 237 228 238 276 315
255 250 249 247 245 234 229 193 158 210 229 205 222 208 203 208 208 215 208 215 189 216 38 312 273 243 252 249 261 211 233 108 75 206 338 210 250 295 224 230 234 235 264 279
251 249 249 249 242 239 224 210 199 197 234 224 209 211 209 211 211 210 215 206 227 90 8 4 324 337 292 249 235 224 185 130 170 190 193 308 292 241 208 195 270 226 267 315
248 249 248 243 242 237 224 217 206 202 218 215 203 199 193 191 207 215 219 238 316 100 119 142 230 225 237 206 229 156 121 128 169 135 147 238 240 5 35 138 281 339 6 316
242 243 243 244 239 231 219 216 202 207 195 188 193 196 189 166 168 188 187 202 192 160 184 202 197 245 275 239 194 169 161 134 222 198 239 272 251 270 338 94 255 297 295 270
239 239 237 230 221 217 212 211 197 201 187 208 200 191 168 163 168 152 170 126 164 179 195 173 185 181 237 225 191 180 159 168 177 181 212 265 213 149 158 222 263 250 279 269
237 232 224 221 216 215 211 208 192 186 164 324 200 204 216 199 196 193 177 182 165 183 157 174 152 191 186 183 225 175 199 182 187 195 209 235 238 242 252 241 238 277 281 296
236 233 229 220 218 214 203 195 175 189 157 177 180 217 237 229 214 213 172 259 175 196 181 163 192 198 137 173 233 202 228 182 222 136 238 254 264 277 285 246 243 255 283 354
232 229 225 221 216 211 207 194 175 179 130 176 221 200 195 221 217 214 211 211 76 87 146 177 178 167 177 196 214 186 204 160 201 259 283 308 289 14 347 325 314 265 263 350
227 222 217 213 208 207 205 185 177 180 169 171 224 185 218 212 201 206 205 208 214 105 211 182 241 197 134 181 91 225 187 323 191 239 71 331 281 340 347 337 12 354 300 307
221 216 207 202 201 186 178 109 182 183 194 102 270 256 210 193 198 197 205 208 177 187 180 221 256 241 141 129 218 61 41 38 354 306 339 292 277 270 2 333 10 5 355 17
218 204 194 187 184 171 170 183 156 174 185 104 294 286 233 178 146 173 199 173 172 224 191 208 173 298 152 155 205 32 360 336 333 350 342 339 22 331 351 354 22 14 6 20
165 167 171 166 159 151 128 138 159 157 100 105 220 246 200 166 157 156 168 157 182 180 197 142 184 100 73 222 14 360 347 329 320 346 336 304 335 12 22 11 37 35 20 23
137 139 137 121 100 117 94 131 139 132 126 174 200 221 187 102 136 113 89 95 131 281 183 178 113 85 82 24 352 344 340 325 321 324 304 347 7 21 31 38 43 47 36 38
96 102 82 107 106 120 104 65 69 40 326 90 223 124 236 153 184 143 131 160 143 180 197 103 72 77 94 36 3 339 329 329 349 345 349 354 4 30 34 54 50 62 65 63
59 53 59 106 115 111 105 129 152 157 200 183 250 204 165 132 160 135 116 161 145 168 118 97 103 111 42 26 14 357 349 12 27 42 44 46 43 45 54 54 56 66 68 76
92 102 82 47 35 38 83 87 112 161 145 103 271 72 76 69 301 93 222 104 100 101 61 69 67 58 24 23 29 19 16 40 51 49 55 58 68 66 73 68 64 68 74 71
77 51 55 28 342 42 59 131 49 55 12 352 341 62 50 32 36 70 90 98 73 105 57 73 40 44 34 40 45 44 49 59 64 63 66 67 67 63 66 66 61 69 70 70
62 60 56 82 1 22 19 331 301 323 329 343 341 79 49 3 56 10 82 31 53 68 72 106 74 74 73 64 69 70 61 63 65 64 67 69 68 65 65 67 71 73 69 70
59 43 49 53 331 343 309 299 325 339 306 320 113 59 58 24 66 23 81 47 63 65 143 94 79 70 73 70 66 70 70 68 65 61 62 64 68 70 68 63 66 71 73 73
64 42 20 336 20 344 348 349 330 337 332 284 20 80 63 48 51 49 20 81 106 190 91 105 97 84 74 70 63 59 62 65 69 68 68 68 66 70 74 69 64 64 67 68
43 28 1 351 268 278 309 315 323 304 323 55 38 57 48 68 55 56 24 117 152 100 90 85 84 85 79 72 67 62 62 59 61 63 62 69 74 79 76 71 66 70 70 73